Le nostre stazioni meteo in Italia

Pubblicità
Il mio iltempo24.it
Bari, Italia (16271): Temperatura & dewpoint: 14.01.2018 06:00:00 - 20.01.2018 06:00:00 (CET)Bari, Italia (16271): velocità del vento: 14.01.2018 06:00:00 - 20.01.2018 06:00:00 (CET)Bari, Italia (16271): direzione del vento: 14.01.2018 06:00:00 - 20.01.2018 06:00:00 (CET)Bari, Italia (16271): reduced air pressure: 14.01.2018 06:00:00 - 20.01.2018 06:00:00 (CET)Bari, Italia (16271): precipitazioni: 14.01.2018 06:00:00 - 20.01.2018 06:00:00 (CET)
Data & Tempo tt [°C] td [°C] ff [km/h] ff [kn] dd ppp [hPa] rr [mm]
20.01.2018 06:00:00 - - - - - - -
20.01.2018 05:00:00 12,4 7,4 0 0 N 1011,1 -
20.01.2018 04:00:00 12,7 7,3 11 6 S 1010,7 -
20.01.2018 03:00:00 13,2 7,8 13 7 SO 1011,5 -
20.01.2018 02:00:00 13,4 7,8 11 6 SSO 1011,9 -
20.01.2018 01:00:00 12,2 7,7 11 6 SSO 1011,9 -
20.01.2018 00:00:00 12,2 8,0 9 5 S 1012,3 -
19.01.2018 23:00:00 12,4 8,4 9 5 S 1012,6 -
19.01.2018 22:00:00 12,8 8,8 13 7 S 1012,4 -
19.01.2018 21:00:00 13,0 9,0 15 8 S 1012,5 -
19.01.2018 20:00:00 13,2 9,0 15 8 S 1012,6 -
19.01.2018 19:00:00 13,4 9,0 18 10 S 1012,6 0,0
19.01.2018 18:00:00 13,7 8,9 18 10 S 1012,5 -
19.01.2018 17:00:00 14,7 9,4 15 8 SSO 1012,4 -
19.01.2018 16:00:00 15,5 7,9 13 7 S 1012,4 -
19.01.2018 15:00:00 16,3 7,4 13 7 S 1012,7 -
19.01.2018 14:00:00 17,1 4,0 8 4 SO 1012,8 -
19.01.2018 13:00:00 17,0 3,2 16 9 SSO 1013,1 0,0
19.01.2018 12:00:00 16,3 6,9 11 6 S 1013,9 -
19.01.2018 11:00:00 15,1 6,6 11 6 S 1014,7 -
19.01.2018 10:00:00 12,1 6,1 9 5 SSE 1014,9 -
19.01.2018 09:00:00 10,1 4,8 15 8 S 1014,8 -
19.01.2018 08:00:00 8,4 4,2 13 7 S 1015,2 -
19.01.2018 07:00:00 8,1 3,5 11 6 S 1014,9 0,0
19.01.2018 06:00:00 7,7 3,1 13 7 S 1015,3 -
19.01.2018 05:00:00 7,0 2,0 11 6 S 1015,7 -
19.01.2018 04:00:00 7,4 1,8 11 6 S 1015,5 -
19.01.2018 03:00:00 7,4 1,4 9 5 S 1016,0 -
19.01.2018 02:00:00 8,1 1,2 9 5 S 1016,4 -
19.01.2018 01:00:00 8,2 -0,2 8 4 S 1016,8 0,0
19.01.2018 00:00:00 7,8 -1,3 9 5 S 1017,3 -
18.01.2018 23:00:00 7,9 -3,1 13 7 S 1017,8 -
18.01.2018 22:00:00 9,9 -1,9 11 6 S 1017,9 -
18.01.2018 21:00:00 10,1 -6,0 13 7 SSO 1017,8 -
18.01.2018 20:00:00 10,4 -8,4 15 8 S 1018,4 -
18.01.2018 19:00:00 10,5 -7,9 11 6 S 1018,8 0,0
18.01.2018 18:00:00 10,7 -4,7 9 5 SSE 1018,7 -
18.01.2018 17:00:00 11,7 -5,4 9 5 E 1019,0 -
18.01.2018 16:00:00 13,3 -3,2 2 1 NO 1018,9 -
18.01.2018 15:00:00 14,0 -1,7 5 3 NO 1019,3 -
18.01.2018 14:00:00 13,7 -5,1 13 7 NO 1019,8 -
18.01.2018 13:00:00 13,8 -4,5 15 8 NO 1020,6 0,0
18.01.2018 12:00:00 13,1 -5,6 21 11 O 1020,9 -
18.01.2018 11:00:00 12,1 -5,1 16 9 ONO 1021,3 -
18.01.2018 10:00:00 10,2 -1,0 16 9 O 1020,3 -
18.01.2018 09:00:00 10,3 2,6 28 15 ONO 1019,3 -
18.01.2018 08:00:00 8,8 0,2 22 12 O 1018,4 -
18.01.2018 07:00:00 10,1 4,0 22 12 NO 1017,2 -
18.01.2018 06:00:00 8,4 1,5 21 11 O 1016,6 -
18.01.2018 05:00:00 8,1 2,5 22 12 O 1015,9 -
18.01.2018 04:00:00 7,8 2,0 24 13 OSO 1015,1 -
18.01.2018 03:00:00 7,9 2,1 29 16 O 1014,6 -
18.01.2018 02:00:00 8,1 3,3 28 15 NO 1013,4 -
18.01.2018 01:00:00 8,6 4,0 24 13 O 1011,9 -
18.01.2018 00:00:00 8,8 4,9 44 24 NO 1011,3 -
17.01.2018 23:00:00 9,6 5,3 46 25 NO 1009,6 -
17.01.2018 22:00:00 8,8 5,5 39 21 NO 1008,3 -
17.01.2018 21:00:00 10,7 5,8 29 16 ONO 1006,9 -
17.01.2018 20:00:00 10,5 6,8 44 24 NO 1005,7 -
17.01.2018 19:00:00 10,8 5,5 28 15 NNO 1004,4 -
17.01.2018 18:00:00 10,7 7,0 29 16 NO 1004,3 -
17.01.2018 17:00:00 11,0 8,9 52 28 ONO 1001,9 -
17.01.2018 16:00:00 18,0 4,8 35 19 ONO 999,7 -
17.01.2018 15:00:00 18,0 7,9 35 19 SO 997,8 -
17.01.2018 14:00:00 18,6 7,0 26 14 O 999,1 -
17.01.2018 13:00:00 19,6 6,3 18 10 O 999,7 0,0
17.01.2018 12:00:00 19,3 6,3 37 20 OSO 1001,3 -
17.01.2018 11:00:00 18,9 9,3 22 12 OSO 1002,7 -
17.01.2018 10:00:00 17,8 9,4 28 15 OSO 1002,3 -
17.01.2018 09:00:00 16,7 8,8 11 6 SSO 1003,7 -
17.01.2018 08:00:00 15,3 8,2 13 7 OSO 1004,3 -
17.01.2018 07:00:00 15,4 8,3 26 14 OSO 1004,4 0,0
17.01.2018 06:00:00 14,6 8,3 18 10 SSO 1005,0 -
17.01.2018 05:00:00 13,1 7,5 13 7 S 1005,9 -
17.01.2018 04:00:00 11,8 7,1 13 7 S 1006,9 -
17.01.2018 03:00:00 11,1 6,2 11 6 S 1008,2 -
17.01.2018 02:00:00 13,4 6,7 11 6 S 1009,0 -
17.01.2018 01:00:00 13,7 7,8 15 8 SO 1009,9 0,0
17.01.2018 00:00:00 13,6 7,1 13 7 SSO 1010,9 -
16.01.2018 23:00:00 13,8 7,3 8 4 SO 1011,3 -
16.01.2018 22:00:00 13,7 7,4 15 8 OSO 1011,3 -
16.01.2018 21:00:00 13,1 6,8 15 8 SO 1011,9 -
16.01.2018 20:00:00 13,2 6,2 15 8 S 1012,3 -
16.01.2018 19:00:00 13,5 6,5 16 9 SO 1012,7 0,0
16.01.2018 18:00:00 13,9 7,1 21 11 OSO 1013,0 -
16.01.2018 17:00:00 14,5 6,5 22 12 SO 1013,2 -
16.01.2018 16:00:00 15,9 6,5 28 15 SO 1013,3 -
16.01.2018 15:00:00 16,9 3,5 16 9 OSO 1013,5 -
16.01.2018 14:00:00 16,2 5,4 21 11 SSO 1014,2 -
16.01.2018 13:00:00 15,9 5,7 21 11 SO 1015,1 0,0
16.01.2018 12:00:00 16,0 6,1 21 11 SO 1016,3 -
16.01.2018 11:00:00 14,9 5,9 18 10 SSO 1017,5 -
16.01.2018 10:00:00 13,2 6,7 16 9 S 1018,0 -
16.01.2018 09:00:00 11,2 6,3 15 8 SSO 1018,5 -
16.01.2018 08:00:00 9,5 6,0 15 8 SSO 1018,3 -
16.01.2018 07:00:00 9,6 5,7 15 8 SSO 1018,3 -
16.01.2018 06:00:00 9,8 6,3 15 8 SO 1018,8 -
16.01.2018 05:00:00 8,6 7,0 15 8 SO 1019,2 -
16.01.2018 04:00:00 7,4 6,0 11 6 S 1019,7 -
16.01.2018 03:00:00 7,0 5,6 11 6 S 1021,0 -
16.01.2018 02:00:00 7,7 5,6 9 5 SSO 1021,6 -
16.01.2018 01:00:00 7,8 6,2 9 5 SSO 1021,5 -
16.01.2018 00:00:00 8,7 6,1 9 5 O 1022,3 -
15.01.2018 23:00:00 9,3 6,5 8 4 O 1022,8 -
15.01.2018 22:00:00 10,1 7,3 4 2 NO 1022,9 -
15.01.2018 21:00:00 10,3 8,4 9 5 NO 1022,8 -
15.01.2018 20:00:00 10,5 8,6 4 2 NNO 1022,7 -
15.01.2018 19:00:00 11,1 7,7 11 6 NNO 1022,9 0,0
15.01.2018 18:00:00 11,1 7,4 2 1 NO 1022,6 -
15.01.2018 17:00:00 11,4 7,7 0 0 N 1022,3 -
15.01.2018 16:00:00 11,5 7,6 5 3 NO 1022,3 -
15.01.2018 15:00:00 11,4 7,7 13 7 NNO 1022,3 -
15.01.2018 14:00:00 11,7 7,9 9 5 NO 1022,7 -
15.01.2018 13:00:00 11,7 7,9 9 5 NO 1023,0 0,0
15.01.2018 12:00:00 12,7 8,7 2 1 SSO 1023,7 -
15.01.2018 11:00:00 11,5 7,4 4 2 SSO 1024,3 -
15.01.2018 10:00:00 11,2 7,7 0 0 N 1024,3 -
15.01.2018 09:00:00 9,3 5,8 2 1 SSO 1024,0 -
15.01.2018 08:00:00 8,1 5,0 11 6 SSO 1023,4 -
15.01.2018 07:00:00 8,6 5,5 8 4 SO 1023,2 0,0
15.01.2018 06:00:00 8,8 5,5 5 3 SO 1022,7 -
15.01.2018 05:00:00 7,9 4,6 11 6 SSO 1023,2 -
15.01.2018 04:00:00 8,0 4,7 9 5 SO 1023,3 -
15.01.2018 03:00:00 8,5 5,4 9 5 OSO 1023,4 -
15.01.2018 02:00:00 9,0 6,2 4 2 SSO 1023,6 -
15.01.2018 01:00:00 9,4 6,4 8 4 SSO 1023,5 0,0
15.01.2018 00:00:00 9,7 6,6 5 3 SO 1023,7 -
14.01.2018 23:00:00 10,1 6,8 2 1 SO 1023,4 -
14.01.2018 22:00:00 10,1 6,4 4 2 SO 1023,2 -
14.01.2018 21:00:00 10,3 6,6 5 3 SSO 1022,9 -
14.01.2018 20:00:00 11,0 6,7 4 2 NNO 1022,6 -
14.01.2018 19:00:00 11,5 6,8 5 3 NNO 1022,4 0,0
14.01.2018 18:00:00 12,1 6,9 0 0 N 1022,2 -
14.01.2018 17:00:00 12,2 7,2 0 0 N 1021,9 -
14.01.2018 16:00:00 12,2 7,2 4 2 NNO 1021,5 -
14.01.2018 15:00:00 12,7 7,3 8 4 N 1021,0 -
14.01.2018 14:00:00 14,3 7,7 11 6 N 1020,8 -
14.01.2018 13:00:00 13,9 8,3 8 4 NNO 1020,7 0,0
14.01.2018 12:00:00 12,9 7,7 4 2 NO 1021,3 -
14.01.2018 11:00:00 11,4 7,1 4 2 OSO 1021,8 -
14.01.2018 10:00:00 10,5 6,4 5 3 OSO 1021,5 -
14.01.2018 09:00:00 10,0 6,5 5 3 OSO 1020,9 -
14.01.2018 08:00:00 9,6 6,1 8 4 O 1020,5 -
14.01.2018 07:00:00 9,5 6,0 8 4 O 1020,0 0,0
14.01.2018 06:00:00 9,4 5,9 9 5 OSO 1019,7 -

tt = Temperatura
td = dewpoint
ff = velocità del vento
dd = direzione del vento
ppp = reduced air pressure
rr = precipitazioni

Stazioni seguenti

WeatherPro
AMSI
MeteoEarth